ECMWFNIL_850_thetae_000.txt.gz
Theta_e
335 336 334 332 333 331 329 332 334 334 333 334 333 333 334 332 331 333 333 332 330 328 328 327 328 330 330 330 331 331 329 329 330 331 334 335 333 331 328 325 323 325
336 337 334 331 332 333 333 334 334 332 330 332 333 332 331 331 333 335 334 331 328 326 325 325 326 328 329 330 331 330 329 330 330 331 334 333 331 328 325 324 325 328
337 336 336 335 335 336 335 333 331 331 331 333 334 334 333 333 333 333 332 331 329 327 326 326 327 328 329 330 330 329 328 330 331 331 331 329 328 327 325 327 329 329
339 337 335 335 335 334 332 330 332 334 334 334 334 334 333 332 333 332 333 332 331 330 329 329 330 331 331 330 328 327 326 328 332 333 332 328 326 327 327 329 330 329
340 338 335 332 333 334 332 330 332 334 334 333 333 332 332 332 332 333 333 333 332 332 331 331 332 333 333 332 330 329 328 329 333 334 333 329 326 327 328 328 328 328
338 337 334 332 332 331 330 331 334 334 333 333 333 331 329 327 327 328 330 331 330 331 332 332 331 331 331 331 332 331 329 330 332 332 331 329 327 327 327 327 327 326
338 336 335 334 333 332 332 333 334 333 332 333 332 331 328 325 324 325 326 328 328 329 331 331 331 330 330 331 332 332 331 330 330 331 330 328 326 327 326 326 326 325
337 338 337 336 336 335 335 335 334 333 333 332 332 333 333 331 329 328 326 326 327 327 328 329 328 330 331 331 331 331 332 331 330 331 331 327 326 328 326 325 325 325
336 337 337 337 336 336 336 335 334 333 332 331 331 333 334 332 331 331 329 328 327 327 327 328 328 329 331 331 331 331 331 330 330 331 330 326 325 327 327 326 325 325
335 336 337 337 336 336 335 335 333 332 332 332 331 331 331 330 331 331 330 329 328 328 329 330 330 330 330 330 330 330 328 329 330 331 331 328 326 327 329 328 325 325
336 335 337 337 336 336 335 334 333 332 331 331 330 331 331 331 331 330 329 328 329 329 329 329 330 330 330 329 329 327 325 326 327 329 330 328 326 326 328 329 328 326
337 335 336 337 336 336 335 334 333 332 331 330 330 330 330 330 330 329 329 328 329 329 328 328 329 329 330 331 330 329 328 327 326 324 325 326 325 325 328 330 330 327
338 336 336 336 336 336 335 334 333 333 332 330 328 329 331 331 330 329 330 329 329 328 328 328 328 328 330 332 333 332 331 330 327 325 326 327 326 327 329 330 330 329
338 337 337 336 335 335 333 333 333 333 332 331 330 332 332 332 331 330 329 328 327 328 328 327 327 328 330 332 332 331 330 328 327 327 329 329 328 329 330 330 329 329
335 335 335 335 335 334 333 332 333 334 334 333 334 334 334 333 332 331 329 328 327 327 328 328 328 330 331 331 330 329 327 327 328 328 328 329 328 328 328 328 327 328
333 332 334 334 334 333 332 333 334 334 334 333 334 335 334 333 331 330 329 328 328 328 328 328 329 329 330 329 328 327 325 324 325 325 324 324 325 325 326 326 327 327
333 332 333 334 333 332 332 333 333 333 333 333 334 334 334 332 330 329 329 327 327 327 327 328 329 328 327 326 325 326 325 324 323 323 321 321 322 322 323 325 326 326
334 334 335 334 333 332 332 331 331 332 333 333 333 333 333 331 329 328 328 326 326 327 328 329 328 327 326 325 324 324 325 326 326 324 324 323 322 320 320 321 324 327
334 335 335 333 333 332 331 331 331 332 333 332 333 333 332 330 328 327 327 326 326 328 328 327 326 325 325 325 325 325 325 326 326 325 324 323 322 322 322 321 324 327
334 335 334 332 332 331 330 330 331 332 332 331 332 332 331 329 327 327 326 326 326 327 327 326 326 325 325 325 326 326 326 326 325 323 322 321 321 323 324 322 323 325
334 334 331 330 331 330 329 330 331 332 332 332 332 332 330 328 327 326 326 326 326 327 326 326 327 327 327 326 326 326 325 325 324 323 323 322 322 322 322 321 322 323
332 331 328 327 328 329 329 330 330 331 331 330 330 330 330 329 326 326 326 326 326 326 326 326 328 328 327 327 326 325 323 322 322 322 323 323 322 321 321 320 321 322
329 328 328 327 328 329 329 329 330 330 328 327 328 329 330 329 327 327 327 326 326 327 327 328 328 327 327 327 327 325 322 321 322 322 324 323 322 320 319 319 321 322
328 327 327 327 328 330 329 328 329 328 327 327 327 328 329 329 329 327 327 327 327 326 326 327 327 327 326 327 326 323 321 322 322 322 323 323 320 318 317 319 321 323
326 326 327 327 329 329 328 328 328 327 326 326 327 328 328 327 327 327 326 327 327 325 325 326 326 326 326 325 323 322 322 323 323 322 323 322 320 319 319 320 323 323
326 326 327 328 329 329 329 328 327 327 327 328 329 330 329 328 328 328 327 326 327 326 325 324 325 325 325 323 321 321 322 323 322 323 322 321 321 320 320 322 323 323

ECMWFNIL_850_thetae_003.txt.gz
Theta_e
329 330 326 325 323 322 324 325 324 324 323 322 324 325 327 330 329 327 328 331 329 324 322 322 323 324 324 325 326 326 327 328 328 330 331 332 332 329 327 325 325 326
328 329 326 324 323 323 323 323 321 320 320 320 321 322 325 325 323 325 330 331 326 322 323 323 323 324 325 327 329 330 330 330 329 330 331 331 331 329 326 325 325 326
327 326 326 324 324 327 326 322 321 322 322 321 324 327 329 328 326 328 330 328 324 322 323 323 323 323 326 329 332 333 333 332 330 330 331 332 332 330 327 325 325 325
329 327 326 323 324 331 331 326 322 323 324 325 329 332 332 331 330 328 327 326 324 322 322 323 323 323 326 331 333 333 333 332 332 330 331 333 334 331 328 326 326 324
329 329 329 325 324 329 329 325 322 324 327 329 331 331 329 328 327 325 324 323 322 322 322 324 324 326 330 332 332 331 331 332 333 331 331 332 332 331 329 328 327 325
330 330 331 327 324 325 325 324 323 324 327 330 330 329 328 327 326 324 322 322 321 322 321 322 324 327 330 331 330 330 331 331 332 332 332 332 332 332 330 328 328 326
331 331 330 326 323 324 325 325 325 326 328 329 330 330 330 329 328 326 325 325 323 321 320 321 323 325 328 329 329 329 330 331 331 331 332 332 332 332 330 329 328 327
331 331 331 328 326 325 326 327 328 328 330 331 331 331 330 330 330 329 328 327 325 323 323 323 323 325 327 328 329 329 329 330 330 330 330 330 330 331 330 330 330 329
331 332 332 330 327 326 328 330 331 331 332 333 331 331 330 330 331 330 329 329 328 328 326 326 326 327 328 328 329 329 329 330 330 330 330 328 327 329 331 331 331 330
330 331 333 332 328 328 331 333 333 333 333 333 331 330 330 330 330 330 329 329 329 328 328 327 328 328 328 328 329 329 329 330 330 330 330 329 327 327 328 330 330 329
332 332 332 331 329 331 334 335 334 334 334 332 330 329 329 329 330 330 329 328 328 328 328 328 328 328 328 329 328 328 329 329 329 329 329 329 329 327 325 327 328 329
336 334 332 329 328 332 335 334 333 334 332 330 328 328 329 330 330 329 328 328 329 330 329 329 329 328 328 328 327 327 329 329 326 326 326 326 327 326 326 327 328 329
339 337 334 330 328 332 334 333 332 330 327 325 327 330 330 329 328 328 328 330 330 330 329 327 327 327 327 327 327 329 330 328 324 323 324 324 324 323 324 324 324 324
339 339 337 333 330 333 334 332 330 328 325 324 327 329 328 326 327 328 329 331 331 329 327 326 326 328 328 327 328 329 329 328 325 322 321 321 320 320 320 319 319 319
340 340 339 335 330 331 332 330 328 327 325 325 326 327 326 325 328 331 331 331 331 328 326 326 328 328 327 327 328 328 327 326 324 323 322 320 320 320 319 318 319 320
341 340 338 335 330 328 328 327 326 326 325 325 327 327 327 329 330 333 332 330 329 328 326 326 327 326 327 328 328 327 325 324 324 323 324 323 323 323 321 320 321 323
340 339 337 334 330 327 327 326 326 325 326 327 328 328 330 331 333 333 332 329 328 328 327 325 324 325 327 328 327 325 324 325 325 325 325 325 325 324 323 321 321 323
339 338 336 333 328 325 325 326 326 327 328 328 330 330 330 332 333 333 331 328 327 327 326 326 325 326 328 328 326 326 325 326 326 326 326 325 325 325 323 322 321 322
337 336 335 332 327 324 324 326 327 327 327 327 329 330 331 332 332 332 330 328 328 327 326 326 325 326 327 328 327 327 327 327 326 326 325 323 323 324 324 323 322 321
337 335 335 332 327 324 326 328 329 329 327 326 328 330 331 332 332 331 331 329 328 327 326 326 326 326 327 326 327 327 327 327 326 325 323 321 321 322 322 323 323 321
337 335 335 333 327 325 328 330 330 330 328 327 329 330 330 330 330 330 330 329 327 326 326 326 326 326 326 327 327 327 326 327 326 325 322 320 321 321 322 323 322 320
335 334 335 331 326 326 330 331 330 330 328 328 329 329 328 327 327 327 328 329 328 327 326 326 327 327 327 327 327 326 326 327 326 323 320 320 321 322 323 323 321 320
332 333 333 329 325 327 329 328 328 329 328 327 328 328 328 326 325 326 327 329 330 328 326 327 327 326 326 327 327 326 326 325 323 321 320 320 321 322 324 324 322 321
331 333 332 327 325 326 326 325 326 327 327 328 328 328 327 326 326 327 329 330 330 328 326 327 326 325 325 326 327 326 324 321 320 320 320 321 321 322 323 323 322 323
330 332 329 327 326 326 325 325 326 328 328 329 328 328 327 327 328 328 328 330 329 328 327 327 326 325 325 325 325 325 322 319 318 319 320 321 322 322 322 322 321 323
328 328 327 327 327 326 326 326 328 329 330 329 329 329 329 330 330 329 329 329 329 328 327 327 326 326 325 324 324 323 321 318 317 319 321 322 322 322 321 321 321 323

ECMWFNIL_850_thetae_006.txt.gz
Theta_e
321 320 321 321 319 317 318 321 323 324 325 325 324 325 327 328 328 329 329 327 324 321 320 320 321 322 323 324 324 324 324 325 326 327 326 327 329 330 329 327 325 324
321 321 320 318 316 316 317 319 320 322 322 321 320 319 321 323 324 324 325 326 327 326 323 321 322 323 323 325 326 326 327 328 329 330 330 329 330 332 332 329 327 326
322 321 319 316 315 316 318 319 320 320 319 318 318 318 320 322 323 323 323 325 328 327 323 321 322 323 324 325 326 328 329 330 330 332 332 332 332 332 333 332 330 328
322 321 319 316 316 317 318 319 320 319 320 320 320 321 322 323 323 324 323 324 325 324 322 321 321 323 324 325 327 328 330 331 331 331 332 332 332 332 332 332 331 329
323 322 320 317 316 317 318 319 318 319 321 322 323 324 325 325 325 325 324 323 323 322 322 322 321 321 322 323 324 326 328 329 330 330 331 330 331 331 332 332 331 330
323 323 321 319 317 317 318 318 318 318 321 324 326 327 328 328 328 328 326 325 324 324 324 322 320 320 320 322 323 324 326 327 329 329 330 329 330 330 330 330 330 330
323 323 321 319 318 317 318 318 318 319 322 326 328 329 329 329 329 329 328 328 327 326 324 322 323 323 323 324 325 326 326 327 328 329 329 329 329 330 330 329 329 330
323 323 322 320 318 318 317 318 319 321 324 327 329 330 331 330 330 330 330 329 329 328 327 325 326 326 326 326 327 327 327 328 329 329 329 328 329 330 330 329 328 328
323 324 323 320 319 318 318 319 320 323 324 326 329 331 332 332 331 330 329 329 329 329 328 327 327 327 327 328 328 328 329 329 329 328 327 328 329 330 330 329 328 328
324 325 324 321 319 319 320 321 322 324 326 327 330 332 332 331 330 329 328 328 328 327 327 327 328 328 328 328 328 328 328 328 327 327 327 327 327 328 328 328 329 329
324 326 325 322 321 321 322 322 323 324 327 329 331 331 330 329 329 328 328 328 328 327 327 329 329 329 329 328 327 327 327 327 327 328 328 326 323 324 325 326 327 327
325 328 327 323 322 323 324 323 322 325 328 331 332 331 330 329 329 329 328 328 328 327 329 330 330 329 328 327 326 326 326 327 327 328 327 325 321 321 322 323 323 322
327 331 331 326 323 323 323 322 322 325 329 332 333 333 330 328 328 328 328 328 327 327 328 330 330 330 328 326 326 327 327 327 326 324 324 323 322 321 322 322 322 321
331 334 333 329 326 324 322 320 321 325 328 332 333 332 328 326 327 328 328 327 327 327 327 330 330 329 327 326 327 327 326 327 325 324 323 323 324 324 324 324 324 323
334 336 334 332 331 327 323 320 321 324 328 332 332 329 327 326 327 327 326 327 329 328 327 327 327 326 324 324 325 326 326 326 325 324 325 325 325 325 325 326 326 325
336 336 334 334 333 327 322 322 322 323 326 329 328 326 326 326 326 325 325 326 328 329 328 326 324 324 323 323 324 325 326 326 326 326 326 326 326 326 326 326 326 325
336 335 336 337 332 325 323 322 323 323 324 325 325 325 324 325 324 323 323 325 327 330 329 327 325 324 324 324 324 325 326 327 327 327 327 327 326 326 324 323 324 324
333 331 336 337 331 325 324 323 324 324 324 324 325 325 324 324 323 322 323 325 329 331 331 328 326 325 325 324 324 326 327 327 327 327 327 326 326 325 323 321 322 323
330 330 335 334 330 327 326 325 325 325 325 325 325 324 324 324 324 323 325 328 330 331 331 329 327 326 326 325 325 326 326 327 327 327 326 325 326 325 322 320 322 323
329 332 334 331 330 330 330 328 325 323 324 325 325 325 324 325 325 326 326 328 330 331 331 331 329 327 326 326 325 326 327 327 327 327 326 325 324 323 321 320 322 323
331 333 333 331 331 332 333 331 326 323 324 324 325 325 324 325 326 326 326 327 328 330 332 331 329 327 327 326 327 327 327 327 327 326 326 324 322 321 320 320 321 322
332 333 332 332 332 334 334 333 328 324 322 323 323 324 324 326 326 326 325 326 328 330 332 331 330 328 327 327 327 327 327 326 325 325 326 324 320 319 319 320 321 321
332 332 332 332 333 334 334 332 328 323 321 322 323 324 325 326 326 326 326 328 330 330 330 330 330 329 327 327 326 326 326 325 325 325 325 322 318 317 319 320 321 321
332 332 331 331 331 331 328 328 327 324 322 322 324 325 326 327 327 328 328 330 331 329 328 330 330 329 327 327 326 326 325 325 325 325 324 322 319 317 318 319 320 320
332 331 329 328 327 326 325 325 326 325 323 324 325 327 329 329 329 330 331 331 330 328 328 330 329 328 327 327 326 326 325 325 325 325 324 322 320 318 318 318 318 318
332 330 327 325 325 324 325 326 327 326 325 326 327 330 331 331 331 332 331 330 329 329 329 329 328 327 327 327 327 326 326 325 325 325 324 322 320 318 318 317 316 317

ECMWFNIL_850_thetae_012.txt.gz
Theta_e
327 328 326 322 322 322 319 317 316 318 322 325 326 324 322 322 323 322 320 320 322 324 326 326 323 320 320 321 323 324 324 323 324 325 326 325 325 325 325 325 326 326
326 327 325 323 322 321 319 317 316 316 318 319 320 320 321 321 322 321 319 320 322 323 324 324 322 320 320 321 322 322 323 323 323 325 326 325 324 324 324 325 326 327
325 326 324 322 320 319 318 317 316 316 316 316 317 318 319 320 320 320 319 320 322 321 322 322 321 321 321 321 322 322 322 323 323 325 326 325 324 324 325 326 327 328
327 328 328 325 323 322 319 317 315 315 315 316 317 317 318 318 319 319 319 320 320 321 321 321 321 320 321 321 321 321 321 322 322 323 324 325 325 325 326 327 328 328
327 329 331 331 331 329 323 317 316 316 316 316 317 317 317 318 318 318 319 320 320 321 321 321 321 322 322 321 320 319 319 320 321 323 324 325 325 325 325 326 327 327
327 326 328 332 335 332 324 318 317 315 315 316 317 317 317 317 318 319 320 321 322 322 322 323 324 324 323 322 321 321 321 321 322 324 326 326 326 325 326 326 326 327
326 323 326 332 337 334 324 319 317 315 315 317 316 317 318 319 320 322 323 324 324 324 325 325 325 325 323 322 323 323 323 323 325 326 327 327 327 327 326 326 327 326
326 326 327 334 342 338 326 318 316 315 316 317 317 317 319 321 323 324 326 326 326 326 326 326 326 325 325 325 325 325 324 325 326 327 327 327 326 326 326 327 327 324
327 327 327 335 342 337 325 319 316 316 318 317 317 318 321 323 325 326 327 327 327 327 327 326 326 325 325 326 325 325 325 326 327 327 326 326 326 326 327 327 325 322
327 329 332 339 342 334 324 320 317 316 317 317 317 319 322 325 326 327 328 328 328 327 327 326 325 324 324 324 324 325 326 327 327 327 326 325 326 326 325 324 322 321
327 334 342 345 343 333 324 320 317 318 321 321 319 319 323 326 327 328 328 328 327 326 326 326 325 324 324 324 325 326 326 327 327 326 325 325 326 325 322 321 322 323
330 342 347 347 344 333 323 320 318 322 328 327 321 319 323 327 327 328 328 327 325 326 326 325 324 324 324 324 325 325 325 325 325 324 324 325 325 324 322 322 324 324
340 346 346 347 344 333 324 321 320 326 333 327 320 320 324 326 328 328 328 326 325 325 325 323 322 323 324 323 323 323 322 322 322 322 323 324 324 322 322 323 325 325
346 347 344 343 343 337 328 321 322 332 334 324 319 322 323 326 328 328 327 326 325 324 323 322 322 323 322 322 321 320 319 320 320 321 322 323 322 322 322 324 325 326
347 347 344 343 345 342 331 322 326 335 331 320 319 322 323 326 328 328 327 326 325 324 322 322 322 322 321 320 320 320 320 320 320 321 321 321 322 322 324 325 326 326
347 347 346 345 346 342 332 328 333 334 327 320 320 322 323 326 327 327 327 325 325 325 323 322 322 322 322 321 321 321 321 322 322 322 322 322 322 323 325 325 326 326
347 347 346 345 344 339 334 336 336 330 323 320 320 322 325 326 327 327 325 324 325 324 322 322 322 322 323 323 323 323 323 323 323 324 324 324 324 324 325 325 326 326
348 347 346 344 341 336 335 337 334 327 323 321 320 322 326 327 327 326 324 324 324 323 322 322 322 322 324 325 325 326 326 326 326 325 325 325 325 325 325 326 326 326
348 346 344 342 338 335 336 337 335 331 326 321 320 323 327 328 328 326 324 324 323 322 321 322 323 323 324 325 327 328 329 330 329 329 328 327 326 326 325 326 326 327
348 345 344 340 337 337 339 339 337 334 326 321 321 323 326 327 327 326 324 322 322 321 321 322 323 323 324 325 327 329 330 331 332 332 331 330 330 328 327 326 327 327
347 345 343 339 337 340 341 339 337 333 324 321 322 323 324 326 325 324 322 321 321 321 322 322 322 323 324 325 327 329 331 332 332 332 332 331 331 330 328 327 327 327
347 345 341 338 339 342 341 337 335 330 323 321 322 322 324 326 325 323 321 320 321 322 323 323 322 323 324 326 327 329 331 331 331 331 330 330 329 328 327 327 327 326
347 343 339 338 339 341 341 338 335 329 324 322 323 324 327 327 325 323 322 321 322 323 323 323 323 324 325 327 329 330 331 331 330 329 329 328 327 327 326 326 326 325
346 342 340 339 338 339 339 338 334 330 327 327 327 328 329 327 325 324 324 324 324 324 324 325 325 325 326 328 329 330 331 330 329 328 328 327 326 325 325 325 325 325
345 342 339 338 338 338 338 337 334 331 331 332 333 333 332 331 329 327 328 328 327 326 326 326 325 326 328 329 330 331 330 328 328 328 327 325 325 325 325 325 325 325
344 340 338 339 339 337 336 334 332 331 332 333 334 334 335 336 335 334 334 334 333 332 330 330 330 330 331 330 331 331 329 327 327 327 325 324 324 324 324 324 324 324